Lexington Weather

Lexington, Massachusetts, USA

26°F
1/23/2020 8:55am 
  • Lexington Conditions: Partly cloudy
  • Temperature: 25.9°F / -3.4°CWarmer 3.3°F than last hour.
  • Dew Point: 18.7°FIncreased 0.9°Fsince last hour.
  • Relative Humidity: 74%Decreased 7.0% since last hour.
  • Wind: Wind from W W Calm, 10-min avg: 1 mph, gust: 9 mph
  • Barometer: 30.33 in Steady
  • Visibility: 10 miles
  • Snow Today: 0.0 in
  •   

Regional Weather Roundup
for Boston / Norton, MA

        
000
ASUS41 KBOX 210910
RWRBOX

REGIONAL WEATHER ROUNDUP
NATIONAL WEATHER SERVICE BOSTON/NORTON MA
400 AM EST TUE JAN 21 2020

NOTE:  "FAIR" INDICATES FEW OR NO CLOUDS BELOW 12,000 FEET WITH NO 
SIGNIFICANT WEATHER AND/OR OBSTRUCTIONS TO VISIBILITY.

MAZALL-211000-
EASTERN MASSACHUSETTS
  
CITY           SKY/WX    TMP DP  RH WIND       PRES   REMARKS
BOSTON         FAIR      20   0  41 NW12G21   30.34R WCI   8          
BEVERLY        FAIR      15  -1  49 N8        30.32R WCI   4          
LAWRENCE       FAIR      15   0  51 NW5       30.34S WCI   8          
BEDFORD        FAIR      14  -3  47 NW6       30.32S WCI   5          
BLUE HILL      NOT AVBL                                               
NORWOOD        FAIR       8  -1  66 NW5       30.34R WCI   0          
MARSHFIELD     FAIR      21   5  49 NW9       30.32S WCI  11          
PLYMOUTH       FAIR      15   3  59 CALM      30.31S                  
TAUNTON        FAIR      15   0  51 NW3       30.32F                  
NEW BEDFORD    FAIR      16   1  51 VRB5      30.33R WCI   9          
$$

MAZALL-211000-
CAPE COD AND THE ISLANDS
  
CITY           SKY/WX    TMP DP  RH WIND       PRES   REMARKS
FALMOUTH       MOCLDY    16   0  48 NW6       30.31R WCI   7          
HYANNIS        FAIR      20   7  57 W6        30.29R WCI  12          
CHATHAM        FAIR      24  14  65 NW5       30.30R WCI  18          
PROVINCETOWN   FAIR      25  15  66 N15       30.31S WCI  13          
NANTUCKET      FAIR      24  11  57 NW13      30.30S WCI  12          
MARTHAS VNYRD  FAIR      19   4  51 N9        30.32R WCI   8          
$$
 
MAZALL-211000-
CENTRAL AND WESTERN MASSACHUSETTS
  
CITY           SKY/WX    TMP DP  RH WIND       PRES   REMARKS
WORCESTER      FAIR      11  -4  51 NW16      30.26S WCI  -6          
FITCHBURG      FAIR       8  -2  63 CALM      30.33S                  
ORANGE         FAIR       1  -5  75 CALM      30.34R                  
SPRINGFIELD    FAIR       0  -4  81 CALM      30.35R                  
WESTFIELD      FAIR       4  -2  76 CALM      30.36R                  
NORTH ADAMS    FAIR       0  -4  83 NW5       30.35R WCI -10          
PITTSFIELD     FAIR       8   3  80 VRB3      30.28R                  
$$
 
RIZALL-211000-
RHODE ISLAND
  
CITY           SKY/WX    TMP DP  RH WIND       PRES   REMARKS
PROVIDENCE     FAIR      15   2  56 SW5       30.34S WCI   8          
NEWPORT        FAIR      19   1  45 N13       30.32S WCI   6          
BLOCK ISLAND   FAIR      19   4  51 N12       30.35S WCI   7          
SMITHFIELD     FAIR      14   0  53 NW7       30.30F WCI   4          
WESTERLY       FAIR      19  -1  41 NW5       30.35S WCI  12          
$$
 
CTZALL-211000-
CONNECTICUT
  
CITY           SKY/WX    TMP DP  RH WIND       PRES   REMARKS
BRADLEY INTL   FAIR      13   3  64 N8        30.36S WCI   2          
HARTFORD       FAIR      13   7  77 CALM      30.38S                  
BRIDGEPORT     FAIR      18   6  59 W6        30.39S WCI  10          
DANBURY        FAIR       9   3  77 NW3       30.37S                  
GROTON         FAIR      15   2  56 NW6       30.35F WCI   6          
NEW HAVEN      FAIR      20   8  60 NW5       30.38S WCI  13          
CHESTER        NOT AVBL                                               
MERIDEN        FAIR      14   5  67 W8        30.38R WCI   3          
WILLIMANTIC    FAIR       9   1  70 CALM      30.36S                  
OXFORD         FAIR      15   7  70 N8        30.33S WCI   4          
$$

MEZ002-015-021-024-NHZ003-005-008-011-012-014-VTZ005-008-211000-
NORTHERN NEW ENGLAND
  
CITY           SKY/WX    TMP DP  RH WIND       PRES   REMARKS
PORTLAND ME    FAIR       1  -6  72 CALM      30.32S                  
BANGOR ME      FAIR       7  -2  66 NW8       30.30R WCI  -6          
CONCORD NH     FAIR       6  -3  66 NW5       30.33S WCI  -3          
MANCHESTER NH  FAIR      14  -1  51 NW9       30.31S WCI   2          
NASHUA NH      FAIR       8   0  69 NW5       30.34S WCI   0          
PORTSMOUTH NH  CLEAR     12  -3  51 VRB6      30.29S WCI   3          
JAFFREY NH     FAIR       9  -3  58 E3        30.27R                  
KEENE NH       FAIR      -5  -9  83 CALM      30.35S                  
BURLINGTON VT  FAIR       0  -6  76 CALM      30.40R                  
MT. WASHINGTON PTCLDY    -2 -15  55 NW52        N/A  WCI -35          
$$

NYZ052-076-211000-
EASTERN NEW YORK
  
CITY           SKY/WX    TMP DP  RH WIND       PRES   REMARKS
ALBANY         FAIR      14   4  64 W3        30.40S                  
NEW YORK CITY  FAIR      21   8  57 N12       30.40S WCI   9          
$$
 
ANZALL-211000-
MARINE OBSERVATIONS
  
STATION/POSITION TIME  TEMP    WIND        PRES    VSBY  WAVE
                       AIR SEA DIR/SP/G                  HT/PER
                 (UTC) (F)     (DEG/KT/KT) (MB)    (MI)  (FT/S)
BOSTON BUOY      0850   22 43  340/ 17/ 21 1026.3R         4/ 4
BUZZARDS BAY     0800   22     350/ 16/ 18 1027.4R
NANTUCKET SOUND  0840                        N/A           2/ 3
MASS BAY-STELLWA 0804   21 41  350/ 16/ 21 1024.9R  1 7/8  3/ 6
ISLE OF SHOALS   0800   19     320/ 16/ 18 1026.1R
S OF BLOCK IS    0900      45                N/A           4/ 4
$$

......................KEY.........................
  SKY/WX - SKY CONDITION/PRESENT WEATHER
  TMP    - TEMPERATURE IN FAHRENHEIT
  DWPT   - DEWPOINT IN FAHRENHEIT
  RH     - RELATIVE HUMIDITY IN PERCENT
  WIND   - DIRECTION AND SPEED IN MPH
  PRES   - MEAN SEA LEVEL PRESSURE IN INCHES OF HG
  WCI    - WIND CHILL INDEX
  VSB    - VISIBILITY IN MILES
  HX     - HEAT INDEX
  TC     - TEMPERATURE IN CELSIUS
  VRB    - VARIABLE WIND DIRECTION
  N/A    - NOT AVAILABLE
  
      

Other recent Regional Weather Roundups

Thu Jan 23, 8:10am

Thu Jan 23, 8:00am

Thu Jan 23, 7:10am

Thu Jan 23, 7:01am

Thu Jan 23, 6:10am

Thu Jan 23, 6:00am

Thu Jan 23, 5:10am

Thu Jan 23, 5:00am

Thu Jan 23, 4:10am

Thu Jan 23, 4:01am

Thu Jan 23, 3:10am

Thu Jan 23, 3:00am

Thu Jan 23, 2:10am

Thu Jan 23, 2:00am

Thu Jan 23, 1:10am

Thu Jan 23, 1:00am

Thu Jan 23, 12:10am

Thu Jan 23, 12:00am

Wed Jan 22, 11:10pm

Wed Jan 22, 11:01pm

Wed Jan 22, 10:10pm

Wed Jan 22, 10:00pm

Wed Jan 22, 9:10pm

Wed Jan 22, 9:00pm

Wed Jan 22, 8:10pm

Wed Jan 22, 8:01pm

Wed Jan 22, 7:10pm

Wed Jan 22, 7:00pm

Wed Jan 22, 6:10pm

Wed Jan 22, 6:01pm

Wed Jan 22, 5:10pm

Wed Jan 22, 5:00pm

Wed Jan 22, 4:10pm

Wed Jan 22, 4:00pm

Wed Jan 22, 3:10pm

Wed Jan 22, 3:00pm

Wed Jan 22, 2:10pm

Wed Jan 22, 2:00pm

Wed Jan 22, 1:10pm

Wed Jan 22, 1:00pm

Wed Jan 22, 12:10pm

Wed Jan 22, 12:00pm

Wed Jan 22, 11:10am

Wed Jan 22, 11:00am

Wed Jan 22, 10:10am

Wed Jan 22, 10:01am

Wed Jan 22, 9:10am

Wed Jan 22, 9:00am

Wed Jan 22, 8:10am

Wed Jan 22, 8:00am

Wed Jan 22, 7:10am

Wed Jan 22, 7:00am

Wed Jan 22, 6:10am

Wed Jan 22, 6:00am

Wed Jan 22, 5:10am

Wed Jan 22, 5:00am

Wed Jan 22, 4:10am

Wed Jan 22, 4:00am

Wed Jan 22, 3:10am

Wed Jan 22, 3:01am

Wed Jan 22, 2:10am

Wed Jan 22, 2:00am

Wed Jan 22, 1:10am

Wed Jan 22, 1:00am

Wed Jan 22, 12:10am

Wed Jan 22, 12:00am

Tue Jan 21, 11:10pm

Tue Jan 21, 11:00pm

Tue Jan 21, 10:10pm

Tue Jan 21, 10:00pm

Tue Jan 21, 9:10pm

Tue Jan 21, 9:01pm

Tue Jan 21, 8:10pm

Tue Jan 21, 8:00pm

Tue Jan 21, 7:10pm

Tue Jan 21, 7:00pm

Tue Jan 21, 6:10pm

Tue Jan 21, 6:01pm

Tue Jan 21, 5:10pm

Tue Jan 21, 5:00pm

Tue Jan 21, 4:10pm

Tue Jan 21, 4:00pm

Tue Jan 21, 3:10pm

Tue Jan 21, 3:01pm

Tue Jan 21, 2:10pm

Tue Jan 21, 2:00pm

Tue Jan 21, 1:10pm

Tue Jan 21, 1:00pm

Tue Jan 21, 12:10pm

Tue Jan 21, 12:00pm

Tue Jan 21, 11:10am

Tue Jan 21, 11:00am

Tue Jan 21, 10:10am

Tue Jan 21, 10:00am

Tue Jan 21, 9:10am

Tue Jan 21, 9:00am

Tue Jan 21, 8:10am

Tue Jan 21, 8:00am

Tue Jan 21, 7:10am

Tue Jan 21, 7:00am

Tue Jan 21, 6:10am

Tue Jan 21, 6:00am

Tue Jan 21, 5:10am

Tue Jan 21, 5:00am

Tue Jan 21, 4:00am

Tue Jan 21, 3:10am

Tue Jan 21, 3:00am

Tue Jan 21, 2:10am

Tue Jan 21, 2:01am

Tue Jan 21, 1:10am

Tue Jan 21, 1:00am

Tue Jan 21, 12:10am

Tue Jan 21, 12:00am

Mon Jan 20, 11:10pm

Mon Jan 20, 11:00pm

Mon Jan 20, 10:10pm

Mon Jan 20, 10:00pm

Mon Jan 20, 9:10pm

Mon Jan 20, 9:00pm

Mon Jan 20, 8:10pm

Mon Jan 20, 8:00pm

Mon Jan 20, 7:10pm

Mon Jan 20, 7:00pm

Mon Jan 20, 6:10pm

Mon Jan 20, 6:00pm

Mon Jan 20, 5:10pm

Mon Jan 20, 5:00pm

Mon Jan 20, 4:10pm

Mon Jan 20, 4:01pm

Mon Jan 20, 3:10pm

Mon Jan 20, 3:00pm

Mon Jan 20, 2:10pm

Mon Jan 20, 2:00pm

Mon Jan 20, 1:10pm

Mon Jan 20, 1:00pm

Mon Jan 20, 12:10pm

Mon Jan 20, 12:00pm

Mon Jan 20, 11:10am

Mon Jan 20, 11:00am

Mon Jan 20, 10:10am

Mon Jan 20, 10:00am

Mon Jan 20, 9:10am

Mon Jan 20, 9:00am

Meta data:

ID: e59bbca7-9861-4b3f-a82d-581e4b39511e
Link: https://api.weather.gov/products/e59bbca7-9861-4b3f-a82d-581e4b39511e